Rochester, Indiana, United States (46975)
Lat: 41.06N, Lon: 86.22W
Wx Zone: INZ015
Local Info
Past Weather Observations for Today

NOTE: This archive is for the closest National Weather Service station to Rochester. Information may differ from the station used for current weather conditions.

Click here for Long-term Archive

Time Weather Temperature Dewpoint Humidity Pressure Winds Precip Visibility
06:35
Clear
Fog And Mist
59°F / 15°C 59°F / 15°C 100% 30.12 in
(1020 mb)
Calm - 5SM
06:15
Clear
59°F / 15°C 59°F / 15°C 100% 30.12 in
(1020 mb)
Calm - 7SM
05:55
Clear
Fog And Mist
59°F / 15°C 57°F / 14°C 94% 30.12 in
(1020 mb)
Calm - 3SM
05:35
Clear
59°F / 15°C 57°F / 14°C 94% 30.09 in
(1019 mb)
Calm - 7SM
05:15
Clear
Fog And Mist
59°F / 15°C 59°F / 15°C 100% 30.09 in
(1019 mb)
Calm - 5SM
04:55
Clear
61°F / 16°C 59°F / 15°C 94% 30.09 in
(1019 mb)
Calm - 7SM
04:35
Clear
61°F / 16°C 61°F / 16°C 100% 30.09 in
(1019 mb)
Calm - 7SM
04:15
Clear
61°F / 16°C 59°F / 15°C 94% 30.09 in
(1019 mb)
Calm - 7SM
03:55
Clear
61°F / 16°C 59°F / 15°C 94% 30.09 in
(1019 mb)
Calm - 7SM
03:35
Clear
61°F / 16°C 59°F / 15°C 94% 30.09 in
(1019 mb)
Calm - 7SM
03:15
Clear
63°F / 17°C 61°F / 16°C 94% 30.09 in
(1019 mb)
Calm - 7SM
02:55
Clear
63°F / 17°C 59°F / 15°C 88% 30.06 in
(1018 mb)
Calm - 7SM
02:35
Clear
63°F / 17°C 59°F / 15°C 88% 30.06 in
(1018 mb)
Calm - 10SM
02:15
Partly Cloudy
63°F / 17°C 61°F / 16°C 94% 30.06 in
(1018 mb)
Calm - 10SM
01:55
Partly Cloudy
63°F / 17°C 61°F / 16°C 94% 30.06 in
(1018 mb)
Calm - 10SM
01:35
Clear
64°F / 18°C 61°F / 16°C 88% 30.06 in
(1018 mb)
Calm - 10SM
01:15
Clear
64°F / 18°C 61°F / 16°C 88% 30.09 in
(1019 mb)
Calm - 7SM
00:55
Partly Cloudy
64°F / 18°C 61°F / 16°C 88% 30.09 in
(1019 mb)
Calm - 7SM
00:35
Overcast
63°F / 17°C 61°F / 16°C 94% 30.09 in
(1019 mb)
Calm - 7SM
00:15
Mostly Cloudy
64°F / 18°C 61°F / 16°C 88% 30.09 in
(1019 mb)
Calm - 10SM
Time Weather Temperature Dewpoint Humidity Pressure Winds Precip Visibility


Weather for websites

WeatherForYou.com, LLC is not responsible for any damages or problems caused by this service. Current weather conditions are obtained from the closest station including government and personal stations which may have varying degrees of accuracy. Weather forecasts are derived from the NOAA NDFD. Like all things, this site belongs to Jesus Christ... He just trusts me to maintain it. If you have any questions or comments email webmaster@weatherforyou.com

Copyright © 2014, WeatherForYou.com LLC. All rights reserved.